STARLINK-1551, 46075

Orbit data source: Space-Track

STARLINK-1551, 46075 is a payload satellite owned by SpaceX/Seattle (US) in LEO that was launched on Fri, 07 Aug 2020 UTC via an FALCON 9 launch vehicle from the Air Force Eastern Test Range (AFETR). Payload-class satellites include a variety of spacecraft equipped with specific instruments for various scientific and technological missions. These include communications satellites like Starlink; space stations such as the ISS; scientific satellites like the Hubble; Earth observation satellites from companies like Planet Labs, Umbra, and HawkEye 360; GPS; miniature CubeSats for education and research; and military/defense satellites.

Loading next visibility...
Identifier
46075, 2020-055BA
Orbit
LEO
Country
Flag of USUS
Related business
Manufacturer
SpaceX/Seattle
Mission
Operational Commercial Communications
Bus & Motor
STARLINK, Unknown motor
Mass
260 kg wet, ~248 kg dry
Launch date (UTC)
2020-08-07 (6 years ago)
Launch vehicle
FALCON 9
Launch site
Air Force Eastern Test Range (AFETR)
Object type
Payload
Rocket body
Debris
Shape & HBR
Box + 1 Pan, 10.1 m
Radar Cross Section
13.562 m², Large (>1 m²)

Expand to show TLE details & history
Last TLE update: 13 hours ago

TLE from 13 hours ago
0 STARLINK-1551
1 46075U 20055BA  26171.20846941  .00001145  00000-0  48646-4 0  9998
2 46075  53.1622 344.7688 0000615 103.0203 257.0867 15.31701154324938
Epoch: 2026-06-20T05:00Z
TLE epoch observation values (Epoch: 2026-06-20T05:00:11.757Z)
Latitude
-0.00001°
Longitude
1.29342°
Altitude
471.731 km
Speed
7.631 km/s
True Right ascension
22h 59m 04s
True Declination
0° 00' 00"
Sunlit
Object was in daylight at epoch
Visualization orbit readout
Latitude
Unknown
Longitude
Unknown
Altitude
Unknown
Speed
Unknown
Apparent Right ascension
Unknown
Apparent Declination
Unknown
Sunlit
N/A
Visualization observer readout
Local Sidereal Time
05:14:42
Azimuth
Unknown
Elevation
Unknown
Doppler factor
Unknown
Orbital elements
Apogee altitude
471.414 km
Perigee altitude
470.572 km
Semi-major axis
6,849.13 km
Eccentricity
0.00006
Inclination
53.1622°
RAAN
344.7688°
Arg. of periapsis
103.0203°
True anomaly
257.07983°
Mean anomaly
257.0867°
Eccentric anomaly
257.08327°
Mean motion
3.82904 °/min
Orbital period
94.02 mins
BSTAR
0.000048646
Loading maneuver chart data...
Computing Atmospheric mass density...
Loading historical data...
Loading historical data...
Loading historical data...
Loading historical data...
Loading historical data...
Loading historical data...
Loading historical data...

Documentation

Showing up to 5 results
|